Wind_Speed
38 39 40 41 42 41 39 37 35 33 31 31 31 30 29 27 24 22 21 20 20 21 21 19 19 18 17 16 16 15 15 14 14 13 13 12 10 10 10 10 11 12 12 12 11 11 11 10 9 9 9 9 8 8 8 9 10 13 16 16 16 14 12 11 11 10 10 10 9 8 6 6 6 8 9 11 11 11 12 11 10 9 8 9 9
39 39 40 41 42 40 38 36 35 33 32 31 31 31 29 27 24 22 21 20 20 21 20 19 18 17 17 16 16 16 16 14 14 14 13 12 11 12 12 12 13 13 13 12 12 12 11 10 10 10 9 9 8 8 7 7 8 10 12 13 12 10 8 7 8 9 9 9 8 6 5 5 6 8 9 10 10 10 10 10 9 9 8 9 9
40 40 40 41 41 38 37 36 35 34 32 32 32 31 29 27 24 21 20 20 21 21 20 18 18 17 17 16 16 15 15 14 14 13 13 12 13 13 13 13 13 13 13 13 12 11 10 10 10 10 9 8 8 7 7 8 8 9 10 10 8 6 5 4 5 6 7 7 6 5 4 4 6 8 9 10 9 9 9 10 10 9 9 8 9
40 40 41 40 38 37 36 35 35 34 33 33 32 30 29 26 23 20 19 20 22 21 19 19 18 17 17 17 15 14 14 14 14 13 13 13 13 13 13 13 14 14 13 12 11 10 10 10 11 10 10 9 8 8 8 8 9 9 9 8 7 5 4 3 3 3 4 4 3 3 4 5 6 8 8 8 7 7 8 9 10 10 9 9 8
41 41 41 39 37 36 36 35 35 33 33 33 31 29 27 25 23 21 20 21 23 21 20 20 19 18 18 17 14 13 13 13 14 14 14 15 14 14 14 14 15 14 13 11 10 10 10 10 11 11 11 9 9 8 7 8 10 11 9 9 8 7 6 5 4 3 3 3 2 3 4 5 7 7 7 6 6 5 5 7 9 10 10 9 8
43 42 40 38 37 36 37 36 34 33 33 32 31 29 27 25 24 22 21 22 23 22 21 20 19 19 19 16 13 12 12 13 14 15 15 16 15 15 15 15 15 14 13 12 11 11 11 12 12 12 11 10 9 8 8 8 11 11 10 10 9 7 6 5 4 3 3 2 2 2 3 5 6 6 7 9 9 7 5 5 8 10 10 10 10
45 43 40 38 37 37 37 36 34 33 32 32 30 28 27 26 25 22 20 23 23 22 22 20 19 19 17 15 13 13 13 13 15 16 16 17 16 16 16 16 16 15 14 13 13 13 13 13 13 13 11 10 10 9 9 10 12 12 10 10 8 7 6 5 4 4 3 2 2 1 3 4 5 6 7 9 11 11 10 9 10 12 11 11 13
45 43 40 39 38 38 37 35 33 32 32 31 30 28 27 27 24 20 20 23 24 22 22 20 19 18 16 14 14 14 14 14 16 17 17 17 17 16 16 16 16 16 15 15 15 15 15 15 14 13 11 11 10 9 10 11 13 13 12 10 8 6 6 5 4 4 3 2 1 1 3 4 5 6 8 9 11 13 14 13 15 15 13 12 13
45 43 40 40 39 37 36 35 34 32 31 32 30 27 27 27 23 20 21 23 24 23 22 21 19 17 15 14 15 15 15 15 16 17 17 17 17 17 17 17 17 17 17 16 16 16 16 16 15 14 12 11 11 11 12 12 12 12 11 10 8 7 6 5 5 4 3 2 1 2 3 3 5 6 8 11 13 14 14 14 15 15 12 10 12
44 43 42 41 39 37 36 36 35 32 31 31 29 26 27 27 24 20 22 24 24 24 23 21 20 17 15 16 16 16 15 15 15 16 16 16 16 17 17 17 17 18 18 18 17 17 17 16 15 14 13 13 13 13 13 14 13 12 11 9 8 7 6 6 5 4 4 2 1 2 2 3 5 6 8 10 13 14 13 14 14 14 13 11 11
44 43 42 40 39 37 36 37 37 35 32 30 28 27 29 28 24 21 23 25 26 25 23 22 20 18 17 17 17 15 14 14 15 16 16 16 16 17 17 18 18 18 18 18 18 17 17 16 16 15 14 14 14 14 14 14 14 13 12 10 8 6 6 6 6 5 4 2 1 2 2 3 4 6 7 9 13 13 12 13 15 14 14 14 14
44 43 42 40 39 38 37 38 37 35 32 30 29 30 31 28 23 22 26 28 28 26 24 22 20 19 18 18 16 14 13 14 15 16 16 16 16 17 18 18 18 18 18 18 18 17 17 16 16 15 15 14 14 15 15 15 14 13 12 10 8 7 6 6 6 5 4 3 2 2 1 2 3 5 7 10 12 11 11 13 14 12 12 13 14
43 43 42 42 41 40 39 37 34 34 33 30 30 32 31 27 23 24 28 29 28 26 24 22 20 19 18 17 15 13 12 13 15 16 16 16 16 17 18 19 18 18 18 18 18 17 16 15 15 15 15 15 15 15 15 16 15 14 13 11 9 7 7 6 6 5 4 3 3 1 1 1 2 4 6 10 11 10 11 12 12 10 10 10 11
43 43 43 43 42 39 38 36 34 35 34 32 32 32 29 26 24 25 29 30 29 27 24 22 20 18 17 15 13 11 11 12 14 14 15 15 16 17 18 18 18 18 18 18 18 16 15 14 15 15 16 16 15 15 16 16 15 14 13 11 10 8 7 6 6 6 4 3 3 1 1 1 2 4 6 9 10 9 11 12 11 9 9 9 8
43 44 44 43 41 39 38 35 36 39 37 33 31 30 28 26 25 27 31 31 29 26 24 22 20 17 15 13 12 10 9 10 12 13 14 15 16 18 19 19 19 19 18 18 17 15 14 13 13 13 15 16 15 15 15 15 14 14 13 12 11 9 7 7 7 6 5 4 3 2 2 2 2 3 5 8 8 8 10 11 10 9 9 8 6
44 45 45 43 41 40 38 35 40 43 39 33 29 28 29 28 26 28 32 30 28 26 24 22 19 16 14 13 11 8 7 8 11 12 14 15 16 18 18 19 20 20 19 19 17 16 15 14 13 13 15 16 16 15 15 15 15 15 14 13 12 10 8 7 7 7 5 4 3 3 3 3 3 2 4 6 6 7 9 10 8 8 9 9 7
45 45 44 43 41 39 37 37 41 42 37 31 28 28 29 28 27 30 32 30 29 27 24 21 19 15 13 13 11 8 6 8 10 12 14 15 16 17 18 20 20 20 20 19 18 18 18 17 16 16 17 17 16 16 16 16 16 16 15 15 13 11 8 8 8 7 6 5 4 4 5 4 4 3 4 6 5 5 8 8 7 8 10 10 10
45 44 43 42 40 39 38 37 40 41 37 31 28 28 28 27 28 32 33 30 29 26 22 20 18 16 14 14 13 9 7 8 10 12 14 15 16 17 18 19 20 20 21 20 20 20 19 17 16 17 17 17 17 17 18 18 18 18 17 16 15 12 10 9 9 8 7 6 5 5 5 5 5 4 4 5 4 5 8 8 6 7 9 11 12
45 43 43 42 40 38 37 36 39 40 36 29 27 27 27 27 29 33 33 29 28 26 22 20 18 16 15 15 14 12 9 10 11 12 14 16 17 17 18 19 20 21 21 21 21 21 20 18 18 17 17 17 18 19 19 19 19 19 18 17 16 13 12 11 10 9 8 7 6 6 7 7 7 6 4 5 4 4 7 7 6 7 9 10 12
44 42 43 42 39 35 36 38 40 38 31 26 24 25 25 27 30 34 33 30 28 27 24 20 17 17 17 17 16 14 12 12 13 13 14 16 18 18 18 20 21 21 20 20 21 22 20 19 19 17 17 18 18 19 19 20 19 19 19 18 16 14 13 12 11 10 8 8 7 7 9 10 9 7 5 5 4 4 6 6 5 6 8 9 10
44 43 42 39 34 32 35 38 37 32 26 24 23 21 22 26 31 34 32 30 29 28 25 20 17 19 20 19 18 16 14 14 15 15 16 17 19 19 19 19 20 20 19 20 20 21 21 21 20 19 18 18 17 18 19 19 19 20 19 18 15 14 14 13 11 10 9 9 8 9 10 11 9 7 5 5 4 3 5 5 4 5 7 8 8
43 41 38 35 34 32 32 31 30 28 25 22 20 19 21 26 31 33 32 31 30 30 27 21 20 22 22 21 19 17 14 14 16 18 18 18 18 19 19 18 18 18 19 21 21 20 21 21 20 19 18 17 16 17 18 18 19 19 18 17 15 15 15 13 12 11 11 10 10 10 11 11 10 7 6 5 5 3 4 4 4 5 6 6 7
41 39 38 38 36 31 29 30 32 30 26 21 20 19 20 24 30 34 33 32 32 32 29 24 22 24 24 22 20 18 16 16 17 18 19 18 18 19 19 18 18 18 19 20 20 20 20 21 20 20 19 17 16 15 16 18 19 17 16 16 16 15 15 14 13 13 12 11 11 10 11 12 10 7 5 5 5 4 4 4 4 5 6 6 6
40 40 39 39 36 30 29 31 31 29 25 22 21 21 20 23 30 34 34 34 34 33 29 25 24 25 24 23 21 19 19 19 19 19 20 20 19 19 19 19 19 19 19 19 19 19 20 21 20 19 18 18 17 16 16 18 19 17 16 16 16 16 16 16 15 14 13 13 12 11 10 11 9 6 4 5 5 5 4 4 4 5 6 7 7
37 37 38 38 36 31 30 30 28 26 24 21 21 23 24 25 29 33 35 35 35 33 30 27 26 26 24 23 21 20 20 20 20 20 20 21 21 20 20 20 20 20 20 19 18 19 20 21 21 20 19 20 19 18 18 18 18 17 17 17 17 17 17 16 15 15 15 14 12 10 9 9 9 6 5 5 5 5 5 5 4 5 7 8 7
35 35 34 32 28 26 26 26 26 26 24 21 21 23 24 25 28 32 34 34 34 33 31 29 28 26 24 23 22 21 20 20 20 20 20 21 21 21 21 21 21 22 22 21 19 19 20 22 22 22 21 21 20 20 20 17 16 17 18 19 18 18 17 16 16 16 15 14 12 10 9 9 9 7 6 6 6 5 6 6 6 6 7 8 7
35 34 31 26 24 23 25 26 28 28 25 23 23 23 23 24 26 28 30 32 33 33 32 30 28 26 25 24 22 21 20 20 20 20 20 20 21 21 22 22 23 24 24 23 22 22 22 23 23 23 22 21 21 21 21 18 17 18 19 19 19 17 16 16 17 17 16 15 13 12 11 10 10 9 9 9 8 7 6 7 8 8 8 9 8
37 37 33 29 26 25 25 27 29 28 26 24 24 23 23 24 25 26 27 28 29 30 29 27 24 23 22 21 20 20 20 20 18 17 17 18 20 21 22 23 24 25 25 25 25 25 24 24 25 25 24 23 22 22 22 21 19 19 19 19 19 18 17 18 19 19 18 16 15 14 13 12 12 11 11 11 10 8 7 8 10 10 9 9 10
36 35 33 31 28 26 27 29 28 27 25 22 21 22 22 24 25 26 26 25 24 23 22 20 18 17 17 17 17 18 18 16 13 13 14 16 17 19 20 22 22 23 23 24 26 27 26 26 26 27 26 25 24 23 23 22 22 21 21 21 20 19 18 19 20 20 18 17 16 15 14 13 13 12 11 10 9 8 8 9 11 11 11 11 12
38 37 36 34 29 25 26 28 27 26 24 22 21 22 23 25 26 25 25 24 23 20 18 17 15 15 15 14 14 14 14 11 10 11 13 14 15 17 18 18 18 18 19 22 26 28 28 28 28 28 27 26 25 24 24 23 23 23 23 22 21 19 19 19 19 19 18 18 18 17 15 14 14 13 12 11 9 9 9 10 11 11 11 12 13
39 38 36 33 27 22 23 27 28 26 24 22 22 22 23 25 25 24 24 24 22 20 19 17 16 16 15 14 13 13 13 11 11 13 14 14 14 15 15 14 14 14 16 20 24 28 30 31 30 29 28 27 27 25 25 24 24 24 24 24 23 21 18 17 18 18 18 18 18 18 17 16 15 14 13 12 11 11 11 11 11 11 11 13 14
32 31 30 27 24 23 25 26 26 24 23 23 23 22 22 24 24 24 24 23 22 21 19 18 18 17 17 16 16 15 15 15 14 15 15 16 16 16 15 14 13 13 15 18 22 25 29 32 33 33 31 30 29 27 26 25 25 25 25 25 24 21 19 17 17 18 19 19 19 19 18 18 17 15 14 13 13 14 14 14 14 13 13 14 16
27 26 24 23 23 24 25 25 24 23 23 23 23 23 23 23 22 22 22 22 22 21 20 20 20 21 21 20 18 18 18 18 17 16 17 18 18 17 16 15 15 16 18 19 21 22 24 28 32 34 34 34 32 30 29 27 26 25 25 25 24 22 20 18 18 18 20 20 20 19 18 17 17 16 15 15 16 16 16 16 16 16 16 16 16
24 21 19 19 19 21 22 21 21 21 22 22 22 23 21 19 19 20 20 20 20 20 20 20 22 24 24 22 20 20 21 20 18 17 18 19 18 17 16 16 18 20 21 21 21 21 22 24 26 28 30 33 34 34 33 31 28 26 26 25 24 23 21 20 20 20 20 20 20 19 18 16 16 16 16 16 17 17 16 16 17 17 17 17 16
20 17 15 14 13 14 16 18 20 22 23 22 21 20 19 19 21 21 21 20 19 18 18 20 22 24 24 22 21 20 20 20 18 17 16 17 17 18 18 20 21 21 22 22 22 21 21 21 21 22 24 27 30 33 35 35 33 31 29 27 26 24 22 21 20 20 20 20 20 19 18 16 15 15 16 16 17 17 16 16 16 17 17 17 16
19 16 15 13 11 12 13 15 18 21 22 21 19 19 20 21 22 22 21 20 20 20 21 22 23 23 23 21 19 18 18 18 17 15 14 14 17 20 22 23 22 22 22 22 22 21 21 20 19 19 20 22 24 28 31 34 35 35 34 32 29 27 25 22 21 21 20 20 20 20 19 18 17 16 16 17 17 16 15 14 14 15 16 17 16
18 16 14 12 11 12 13 13 15 17 18 19 20 21 22 22 22 22 23 23 23 23 25 25 24 22 21 18 16 15 15 15 15 15 15 16 18 21 24 24 23 23 22 22 21 21 22 20 19 18 18 19 21 23 26 29 31 33 35 34 33 31 28 25 23 22 21 20 20 20 19 18 17 16 16 16 17 16 15 14 14 15 16 16 16
18 15 13 11 11 11 12 13 14 15 16 18 19 21 22 22 23 24 25 25 25 25 26 25 23 20 18 16 14 13 13 14 15 15 16 17 19 21 23 24 24 24 23 22 22 22 22 21 20 18 18 18 19 20 22 24 26 28 30 31 32 31 30 27 25 23 20 18 17 18 17 16 15 16 16 16 17 16 15 14 15 16 17 17 18
19 15 13 11 10 11 12 13 14 15 16 18 19 20 21 21 22 23 24 24 25 25 25 23 21 17 15 14 13 13 14 15 16 16 16 17 19 20 22 24 25 24 24 23 22 22 22 21 21 19 18 17 17 17 18 19 20 22 24 25 26 26 26 26 26 24 21 17 15 15 15 14 14 15 16 16 16 15 15 15 16 17 17 18 18
18 16 14 12 10 11 12 13 15 16 17 18 19 20 21 22 22 23 23 23 23 22 20 19 16 14 13 14 14 14 16 16 16 16 15 15 16 18 19 21 23 23 23 23 22 22 21 21 21 20 18 16 16 16 15 15 15 16 17 18 19 20 20 21 22 23 22 19 15 13 13 13 13 14 15 15 14 14 15 16 16 17 17 17 17
16 15 13 11 10 11 12 14 15 16 17 19 20 21 22 22 21 21 20 19 19 17 15 14 14 14 15 15 15 15 16 16 16 15 14 14 14 15 16 18 20 21 21 22 21 21 21 21 21 20 18 17 17 16 15 15 15 15 15 16 16 16 17 18 19 20 21 21 18 14 13 14 14 13 13 13 13 14 14 14 15 16 17 18 18
15 14 12 10 9 10 11 13 15 16 17 17 17 18 18 18 17 16 16 15 14 13 12 12 14 15 16 16 16 16 16 16 16 15 14 13 13 13 14 15 15 16 18 18 19 19 20 20 21 20 20 19 18 17 16 15 15 15 15 15 15 15 15 16 17 18 20 23 21 17 14 14 14 13 12 13 13 14 14 13 13 14 15 16 18
15 12 10 8 9 9 10 11 13 13 13 12 10 11 12 13 13 13 12 11 11 12 12 14 15 16 16 16 16 16 17 16 16 16 15 13 12 12 12 12 11 11 12 13 14 16 17 19 20 20 20 19 18 17 17 16 15 15 16 15 15 15 14 15 16 18 20 24 24 20 16 14 13 13 12 13 13 14 15 15 16 16 16 17 17
13 10 9 9 10 10 10 11 11 11 11 10 10 11 12 13 13 12 12 12 14 15 16 16 16 16 16 15 15 16 17 18 18 17 16 14 13 12 11 11 10 10 10 10 11 13 14 16 17 18 18 18 18 17 17 16 15 16 16 16 16 15 13 12 13 13 16 19 21 20 17 15 13 13 13 13 13 14 15 17 17 18 18 18 18
11 11 10 10 9 9 9 10 10 10 11 11 11 11 12 12 12 13 13 15 16 16 15 14 14 14 15 15 15 16 17 18 19 18 17 16 14 11 9 9 9 10 10 10 10 12 13 15 17 18 19 19 18 17 16 15 14 15 15 15 15 14 12 10 10 9 10 13 16 18 17 14 13 13 14 13 14 15 15 17 18 18 18 18 19
12 12 11 9 8 8 8 8 9 10 11 11 12 12 12 12 13 14 15 16 15 13 12 12 12 13 15 15 15 16 16 17 18 19 18 17 15 12 10 9 9 10 10 10 10 12 14 15 17 19 19 19 18 17 15 13 12 13 14 14 15 14 13 11 11 11 10 11 13 15 15 14 13 14 15 14 14 15 16 17 17 17 17 18 18
13 12 10 10 9 8 8 8 9 10 11 12 13 13 13 12 13 14 14 14 12 12 12 12 13 14 15 15 15 15 15 16 18 19 18 17 15 13 11 10 10 10 11 11 11 13 14 15 16 16 16 16 17 16 15 13 11 11 11 12 14 14 14 14 14 14 13 12 13 14 14 14 14 15 16 16 16 17 17 17 17 17 17 18 18
13 11 10 10 8 7 7 6 6 8 10 11 12 13 13 13 13 13 13 13 13 13 13 14 14 14 15 15 15 15 15 15 16 16 16 16 15 13 12 11 11 11 12 12 12 13 13 13 12 12 12 14 15 15 14 13 11 11 11 11 13 14 15 15 16 16 16 15 15 16 16 17 17 17 17 17 17 17 17 17 17 18 18 18 19
13 11 10 9 7 6 5 5 4 3 5 8 10 12 13 14 14 13 13 13 13 13 14 14 13 13 13 13 14 13 13 13 13 13 14 14 14 14 13 12 12 13 13 13 12 12 11 11 10 9 9 11 13 13 13 13 12 12 12 12 13 14 14 15 16 16 16 17 17 18 19 19 19 19 18 18 17 16 16 17 18 18 18 18 18
13 12 10 8 6 5 4 2 2 2 1 3 7 10 12 13 13 14 14 14 14 14 15 15 14 14 14 15 14 14 13 12 12 12 13 14 14 14 13 13 14 14 13 12 12 12 12 11 10 8 8 9 10 11 12 12 12 12 13 13 14 14 14 15 16 16 16 17 17 18 19 19 19 18 17 16 15 15 16 17 18 18 18 17 16
14 13 11 8 7 5 2 0 1 2 3 3 4 8 11 12 12 12 13 14 14 15 16 16 16 16 16 16 15 14 13 12 12 12 12 13 13 14 14 14 15 14 13 13 13 13 13 12 10 9 8 8 8 9 10 11 11 12 12 13 14 14 15 15 14 14 14 15 15 16 16 17 16 15 14 14 15 16 17 18 18 18 16 15 14
Wind_Direction
210 212 214 216 217 216 217 219 221 223 226 229 232 233 233 233 231 230 228 226 225 224 221 218 222 228 231 229 227 229 233 235 237 236 232 232 235 234 234 230 223 219 217 217 217 217 217 217 216 216 217 218 217 216 212 206 205 211 215 218 222 227 232 233 227 218 219 235 250 264 282 293 300 307 317 329 337 339 341 341 335 327 329 341 349
210 212 214 216 216 217 217 219 221 223 226 229 231 232 232 229 227 229 229 229 227 221 217 216 219 226 231 231 230 231 232 233 234 234 232 232 234 232 230 225 222 219 218 219 220 218 216 217 220 221 220 222 223 220 215 209 205 206 210 212 214 218 217 217 224 226 228 239 253 266 278 290 303 312 321 332 339 344 348 349 344 337 338 349 356
210 212 214 215 215 216 218 220 221 222 225 228 230 231 230 228 227 228 231 231 225 216 213 215 219 224 229 233 235 234 233 232 231 232 233 233 233 231 227 224 221 222 222 221 221 220 218 219 223 227 228 227 226 220 211 206 204 201 200 199 199 199 195 204 226 235 239 246 256 265 275 293 310 320 327 332 335 340 349 358 358 349 345 355 2
210 212 213 213 214 216 218 220 220 222 225 226 228 229 228 227 227 229 233 231 220 210 208 212 218 224 228 232 235 233 233 233 231 231 231 231 231 229 227 224 220 222 224 223 224 224 223 225 227 229 229 227 225 219 213 208 202 197 192 185 179 177 176 188 208 222 231 237 246 266 293 313 320 325 329 324 321 328 342 356 1 358 355 0 5
210 212 212 212 214 216 219 220 220 222 224 224 226 227 225 226 228 231 232 224 211 206 207 210 215 221 227 232 234 232 233 235 233 232 229 227 226 226 227 224 220 220 221 223 227 228 228 229 230 230 228 227 226 224 225 217 200 192 187 177 172 172 173 177 184 183 189 201 231 280 308 322 328 334 338 332 319 314 331 354 1 1 2 7 14
210 212 211 211 213 217 219 220 221 223 224 224 225 224 223 225 230 233 227 214 206 205 208 212 216 221 227 232 231 230 232 233 232 231 229 227 224 221 222 222 221 220 219 222 226 227 229 229 230 232 230 228 232 234 232 214 195 188 186 180 178 180 181 180 177 175 180 197 227 280 307 319 329 338 349 357 352 343 348 7 11 9 5 6 16
210 211 211 211 213 217 220 221 223 222 223 225 225 222 222 226 232 234 223 209 204 205 207 213 219 224 228 230 228 228 229 229 229 228 227 226 224 221 219 219 221 220 220 221 223 225 228 229 231 233 232 231 232 232 223 203 190 188 187 187 188 186 183 181 175 178 188 201 225 278 315 326 335 342 352 4 5 0 0 6 11 15 15 11 14
209 210 210 211 213 216 220 223 223 222 224 226 224 221 222 227 233 233 219 207 204 206 209 214 220 224 228 227 226 227 226 225 226 224 224 224 224 223 221 220 221 220 220 221 222 225 226 228 230 229 228 228 224 217 212 201 194 193 191 190 192 190 185 183 177 180 189 198 231 322 343 349 355 355 357 4 7 5 4 4 5 10 17 18 14
207 209 210 211 213 216 219 222 221 221 224 224 221 223 225 228 233 229 215 206 205 207 211 216 222 226 228 225 224 224 224 224 223 223 224 224 224 224 223 223 223 222 222 222 223 225 225 226 227 223 220 221 212 207 207 201 197 201 199 195 195 194 190 185 183 186 192 202 322 359 6 18 15 3 5 7 6 4 3 2 3 6 13 18 18
206 208 209 211 214 216 217 219 219 220 224 224 225 228 225 228 234 225 211 207 207 208 211 215 221 226 229 228 226 224 223 223 221 222 225 227 227 227 225 224 225 224 225 227 228 227 225 224 223 218 218 217 208 206 208 201 197 202 205 203 201 202 198 192 192 194 196 205 358 8 17 46 31 7 8 10 4 2 2 359 0 4 6 11 20
206 208 209 210 212 213 216 219 219 218 221 224 229 229 222 227 234 222 209 209 209 209 211 216 221 226 230 230 228 226 224 222 220 220 223 226 228 230 229 228 227 227 227 231 233 231 227 223 219 218 221 218 210 209 209 204 201 203 206 207 206 208 209 204 204 206 208 225 340 11 26 58 37 7 6 8 3 4 5 359 0 5 6 5 9
206 208 209 209 211 213 215 217 218 218 217 221 227 224 219 227 233 218 209 209 208 209 213 217 222 227 229 228 226 226 224 222 221 221 222 225 227 230 232 232 232 231 231 232 233 233 231 224 220 221 222 218 213 213 211 207 207 208 209 212 212 213 215 216 218 221 227 260 327 8 54 62 26 1 4 5 2 5 6 0 1 9 11 6 2
207 208 210 210 210 212 214 214 217 220 219 220 223 218 217 229 231 216 208 208 209 211 215 218 222 226 229 228 225 222 222 222 222 223 224 227 228 230 233 235 236 235 235 234 233 234 234 228 224 225 222 216 215 216 214 212 212 213 214 217 218 218 220 223 227 231 240 275 320 346 97 59 359 358 4 2 359 1 3 2 5 11 14 11 2
207 208 209 209 209 211 212 214 218 220 219 219 217 215 220 233 231 215 208 207 209 212 215 218 222 225 228 228 225 222 223 224 225 226 227 229 231 233 235 237 237 237 237 237 238 239 237 234 233 231 225 220 218 218 218 217 217 219 221 222 222 225 228 231 235 239 248 275 310 318 226 273 338 358 1 357 356 356 357 360 5 7 11 16 10
207 208 209 209 209 211 212 215 219 217 214 213 215 218 227 234 229 214 207 207 209 213 216 219 223 227 229 227 225 224 225 229 231 232 232 232 233 235 237 237 236 236 238 239 242 243 240 237 237 234 229 228 226 221 220 221 222 223 226 227 228 232 235 234 236 243 255 279 301 291 247 270 318 350 350 348 353 355 353 356 0 1 3 12 14
207 209 208 208 209 211 212 216 219 215 208 206 213 222 227 231 227 214 206 207 211 214 218 221 225 231 232 228 225 225 234 242 239 237 236 234 233 235 236 236 235 235 237 238 238 239 237 234 235 236 232 231 229 226 223 223 224 227 230 231 233 237 236 233 236 244 258 274 290 280 260 271 294 319 331 336 346 353 351 350 353 356 359 2 7
205 206 207 209 210 211 213 216 217 212 205 206 216 222 225 230 227 213 206 207 210 214 219 221 227 234 234 233 231 226 241 259 253 244 239 235 235 235 234 234 235 236 237 238 237 237 237 237 238 238 232 227 226 226 225 225 226 228 230 233 237 239 235 232 237 246 258 271 281 273 256 260 271 278 308 322 332 348 348 344 344 354 0 358 358
206 208 210 212 212 212 213 214 215 211 205 210 220 222 226 234 226 211 207 209 211 217 222 223 229 235 237 239 238 229 242 266 262 252 244 238 237 238 237 237 237 237 238 239 239 238 238 238 239 236 229 226 225 227 228 230 230 231 232 234 238 237 232 234 240 247 255 265 275 267 251 251 255 253 281 305 312 338 346 342 339 351 359 356 352
209 211 212 212 211 211 212 215 218 212 205 209 219 223 230 237 225 210 208 211 216 220 221 223 231 237 239 242 239 232 239 252 255 255 249 242 239 239 239 239 238 238 240 242 243 243 239 236 235 233 228 226 227 228 231 233 234 234 235 235 237 235 231 235 243 249 257 267 273 264 247 242 244 244 266 288 291 330 346 340 334 342 349 351 351
210 211 211 210 209 212 216 217 215 209 205 211 220 226 235 234 219 209 208 212 218 220 218 224 237 238 238 241 238 236 241 244 247 252 251 245 242 240 240 241 242 246 248 248 247 247 243 236 233 230 229 229 231 232 234 236 236 236 236 237 238 236 234 238 244 250 260 268 269 258 242 238 239 239 256 273 273 320 344 335 326 334 336 338 348
208 209 209 208 209 215 218 215 210 206 208 218 224 230 236 228 215 210 210 213 219 218 217 228 244 242 238 240 238 239 246 247 246 247 248 248 246 244 245 248 252 256 258 255 254 252 246 239 234 231 232 233 233 234 236 237 237 236 236 238 238 235 236 241 246 250 255 259 260 251 239 236 236 237 254 265 259 305 342 330 316 325 324 326 341
205 205 206 208 210 210 211 215 217 213 212 220 226 228 230 223 216 214 214 216 220 219 218 229 243 242 239 239 239 240 246 248 245 245 247 251 251 249 250 255 260 261 259 259 260 258 250 241 237 237 240 240 238 238 239 237 237 236 236 236 235 234 236 242 246 250 253 255 256 249 238 233 230 236 258 263 249 281 333 319 300 312 314 314 333
205 206 208 208 205 204 211 220 220 211 208 220 229 227 225 221 217 215 216 218 221 220 220 228 238 240 239 239 239 239 242 248 250 247 245 248 251 252 253 257 261 262 260 261 264 264 256 245 240 241 246 248 251 250 244 236 234 234 234 234 235 234 236 240 244 248 252 254 253 248 237 229 229 239 262 262 249 267 308 305 295 306 304 299 312
207 207 207 204 201 207 218 217 208 203 210 225 230 225 222 219 216 216 217 220 221 221 221 229 238 241 240 241 242 240 240 246 252 250 243 242 246 250 252 255 257 259 261 264 268 266 258 248 243 245 249 253 257 253 242 233 230 231 232 234 236 235 236 239 243 246 249 250 250 246 234 225 227 243 263 257 255 269 281 286 297 308 304 294 293
206 206 206 204 203 208 209 202 200 208 219 227 225 220 218 217 215 216 217 219 222 222 223 231 239 242 242 245 247 246 244 245 248 247 243 242 243 245 249 253 255 256 258 262 267 265 256 248 247 249 253 256 253 243 234 229 227 228 230 233 236 236 238 240 241 243 247 248 245 239 228 221 228 246 258 261 275 283 276 276 296 309 306 297 288
207 209 209 207 206 207 203 200 207 215 220 222 219 218 219 217 214 215 217 220 222 223 226 233 239 241 244 248 249 248 249 249 249 248 245 243 242 243 246 250 253 254 255 258 260 256 248 244 245 247 249 250 243 234 231 229 227 227 229 232 235 237 239 241 241 243 247 247 240 231 225 226 236 252 265 275 290 289 271 275 298 312 310 303 296
208 207 207 206 205 206 207 210 214 216 216 216 215 216 220 217 212 212 215 218 221 224 228 233 238 242 246 249 249 249 251 253 253 252 249 245 243 243 246 250 253 254 255 256 256 250 242 239 240 242 244 244 238 232 230 229 226 226 229 232 236 238 240 242 241 242 244 241 233 229 233 241 252 266 274 279 286 282 267 277 298 309 310 307 302
206 202 204 205 204 205 210 215 216 214 212 213 214 217 218 212 208 208 210 213 218 222 226 232 238 244 247 250 252 252 253 255 258 259 258 255 250 247 249 254 258 258 258 257 255 251 246 240 238 240 242 242 239 235 233 230 227 227 229 233 238 241 242 242 241 241 241 239 233 233 241 250 259 268 272 277 283 280 268 277 293 301 303 301 300
204 202 206 207 205 208 214 216 215 212 209 210 215 218 215 208 206 208 211 216 221 226 231 238 245 251 255 258 259 257 257 262 271 275 272 266 262 261 260 261 263 264 263 260 255 251 248 244 240 241 242 242 241 241 239 236 234 233 234 238 242 244 245 245 244 244 244 241 238 239 246 252 257 263 268 274 282 280 273 280 292 297 298 297 300
205 205 207 205 202 208 215 215 212 211 209 207 208 213 214 213 213 214 216 220 225 231 240 247 254 259 261 263 263 263 267 274 280 279 274 269 269 272 270 265 263 263 263 260 254 249 246 244 243 244 244 244 245 244 243 243 243 244 245 246 247 249 251 252 252 252 251 248 245 246 249 254 258 263 268 273 277 278 278 284 294 296 293 294 301
206 207 207 204 201 208 218 216 212 210 210 207 207 210 212 212 213 214 217 222 227 233 240 245 251 256 258 257 258 261 266 269 265 264 265 262 261 263 262 257 257 258 258 258 255 251 247 244 244 245 247 248 249 249 248 248 250 252 254 254 252 252 256 263 265 263 259 254 251 252 254 257 261 265 268 270 272 273 273 280 289 292 288 290 298
203 204 204 204 207 214 219 216 211 209 206 202 203 207 207 205 206 209 214 219 224 228 234 239 244 249 252 253 254 255 260 265 263 258 255 249 244 245 245 243 245 251 254 255 255 253 249 246 246 247 249 251 253 254 253 253 254 255 257 257 256 256 261 271 274 267 257 253 253 256 257 259 262 265 267 270 273 274 273 276 282 285 283 288 295
200 202 202 206 212 215 214 212 211 208 203 199 202 206 207 207 208 211 213 216 219 223 229 234 239 243 245 247 250 252 256 262 263 257 249 240 234 235 237 236 238 243 247 250 253 254 252 251 250 250 252 255 257 257 256 256 255 255 256 256 257 258 264 273 276 267 256 252 253 255 257 258 261 264 266 268 273 276 276 277 279 279 281 288 292
201 203 201 202 207 209 209 212 213 209 203 203 208 211 212 214 217 218 218 218 219 223 229 234 239 242 244 244 246 248 253 257 257 250 241 233 228 230 235 237 239 241 244 247 250 252 254 255 254 254 255 256 258 258 258 257 255 254 254 255 257 260 265 273 275 267 256 251 251 253 256 258 261 264 265 266 269 273 274 276 276 275 279 285 288
195 196 194 196 203 209 211 214 212 207 205 207 210 213 217 221 222 223 224 225 226 230 236 240 243 246 248 249 250 251 253 254 250 243 236 229 226 229 236 240 243 244 246 248 249 251 253 255 257 257 256 256 257 258 258 259 257 256 255 256 258 260 265 272 275 268 258 253 253 253 255 258 260 263 266 269 272 273 274 276 277 276 278 282 282
181 183 188 193 201 207 208 208 207 207 208 210 212 218 223 227 229 231 231 231 234 238 242 244 246 248 251 253 255 253 250 246 242 239 235 231 232 236 240 243 248 252 253 252 252 252 254 256 260 265 265 264 263 261 259 259 259 259 259 259 260 262 265 269 272 269 263 259 257 255 255 257 259 263 268 273 276 277 277 277 276 275 278 280 279
178 179 187 193 200 204 205 205 207 210 213 215 219 225 230 233 237 239 238 237 237 240 244 247 248 250 250 250 249 246 241 238 239 239 236 234 236 240 242 245 249 252 255 256 255 254 255 257 262 270 274 275 274 272 268 264 262 260 260 261 262 263 265 267 269 269 267 265 263 261 259 259 260 264 270 276 280 282 280 276 274 274 277 279 279
174 177 186 198 207 209 208 210 212 216 219 221 226 232 235 238 241 243 244 243 242 244 248 251 252 250 246 241 237 236 236 238 241 243 241 241 243 244 245 247 250 251 253 256 259 260 260 260 261 266 274 279 283 284 281 277 272 267 265 264 263 264 265 265 266 267 267 266 264 260 257 257 259 264 270 276 280 283 282 278 277 277 277 278 282
170 174 184 197 210 218 222 225 226 228 230 231 233 237 241 244 246 247 247 247 247 249 252 253 251 247 241 235 232 233 236 240 243 247 249 251 252 253 253 254 256 257 257 259 261 263 263 261 258 260 269 279 287 289 286 282 278 275 272 270 268 267 265 264 264 264 262 261 258 252 248 252 259 264 270 276 281 284 286 285 283 282 281 280 282
178 185 193 202 213 222 229 232 233 236 238 238 238 240 242 245 248 249 249 249 249 250 253 254 252 248 241 236 235 237 240 244 249 254 256 256 257 261 261 261 263 264 263 263 264 265 264 261 256 258 267 277 285 288 284 277 273 272 271 269 266 264 263 261 260 257 253 251 251 249 246 250 258 265 271 278 284 289 291 290 287 284 281 280 280
176 182 187 193 203 214 224 229 232 236 240 242 244 246 247 248 249 249 248 247 246 247 252 256 258 254 246 240 241 242 244 248 255 257 255 253 255 260 264 266 267 267 265 265 266 266 266 262 258 260 268 276 282 284 280 274 269 265 262 259 257 259 260 258 256 253 247 242 243 248 250 252 256 261 268 277 286 292 293 292 288 284 280 279 281
163 167 170 176 191 207 219 224 227 231 235 238 241 243 243 242 240 237 239 243 247 251 254 255 256 255 250 247 248 247 245 248 252 252 248 248 255 262 264 265 265 264 262 262 262 262 263 262 261 263 268 274 277 277 273 269 269 267 263 259 255 256 258 257 256 254 247 239 237 244 250 250 250 255 266 276 284 287 286 284 282 282 280 280 282
163 164 166 174 187 195 200 206 211 214 214 215 216 218 219 221 223 227 233 241 245 247 245 243 248 254 256 254 253 249 244 243 243 243 244 253 265 268 263 259 258 257 256 254 253 254 256 258 260 263 266 268 272 271 265 262 264 264 261 258 253 250 251 253 255 256 251 244 239 240 243 245 248 255 266 273 276 278 278 277 277 278 278 279 281
170 173 173 173 180 185 189 196 202 202 201 202 206 210 212 215 218 222 228 235 241 244 243 243 248 255 256 253 249 245 241 238 237 238 244 255 265 269 262 252 250 254 255 254 252 253 256 258 261 263 262 261 263 262 259 256 257 256 255 253 248 241 238 239 243 248 250 245 238 234 236 242 248 253 260 268 273 276 277 278 278 278 278 279 283
178 178 172 167 169 174 181 190 198 201 203 208 213 217 220 220 219 221 229 236 240 241 241 242 247 252 252 249 245 241 239 238 239 240 245 253 265 272 265 252 251 254 256 256 257 258 260 261 260 257 255 252 251 250 248 248 249 250 248 243 234 222 216 218 224 227 231 231 229 228 230 234 240 247 256 265 272 275 275 275 276 278 280 283 287
176 168 159 156 161 167 175 185 194 198 204 210 214 216 219 220 220 223 230 233 234 236 238 241 245 250 251 250 246 243 242 241 240 241 245 253 263 269 264 257 258 258 257 258 262 264 264 263 260 258 255 249 241 236 234 234 238 240 237 230 221 214 213 219 222 221 221 223 226 227 226 227 236 247 255 261 266 270 271 272 275 279 284 288 293
173 162 151 149 151 153 162 176 187 193 199 204 208 211 215 218 219 221 222 222 222 228 235 241 246 250 253 254 253 252 251 247 242 242 246 252 258 262 262 261 262 261 258 259 263 265 265 263 261 259 253 242 230 222 219 219 222 225 225 224 224 224 225 228 231 233 235 236 234 230 228 233 243 250 253 258 263 267 269 271 277 283 288 292 295
174 166 158 153 146 141 143 153 171 187 194 197 199 202 206 210 213 215 217 220 222 226 232 238 245 250 254 256 256 256 255 252 248 246 248 250 255 260 263 262 262 261 258 256 259 263 262 257 252 249 241 230 222 216 214 214 215 216 219 224 228 228 229 233 237 242 245 245 242 238 239 245 250 252 254 260 266 268 271 276 282 287 291 293 295
181 178 174 168 158 148 137 123 124 156 187 198 201 202 205 209 214 218 223 226 226 226 229 235 240 244 246 248 249 250 250 249 248 247 247 250 256 261 261 259 259 258 255 252 253 253 247 237 230 227 221 216 214 213 214 216 218 220 225 228 229 230 233 238 242 245 246 244 243 243 245 249 253 255 258 264 269 272 277 282 286 290 294 295 295
190 189 187 184 180 172 157 122 92 77 61 226 217 213 212 214 216 219 223 224 224 223 225 230 233 233 234 235 237 240 241 240 239 241 244 250 258 262 260 257 257 255 250 246 243 236 225 216 211 205 202 202 207 210 214 217 220 224 228 231 233 235 239 242 244 246 245 242 241 243 245 249 254 259 264 268 271 275 281 287 291 293 295 293 291
193 192 191 194 197 198 199 201 37 14 353 316 252 228 221 218 217 218 221 225 227 226 226 227 228 230 233 237 239 239 237 233 233 237 241 246 253 257 257 255 253 247 242 240 236 226 215 207 201 199 199 203 209 212 212 214 217 222 228 231 232 234 236 239 241 241 239 238 240 244 248 254 259 263 266 270 275 281 288 292 293 293 291 289 288
Height
1473 1476 1479 1482 1485 1489 1493 1496 1499 1502 1504 1506 1507 1509 1511 1513 1515 1517 1519 1521 1522 1524 1526 1527 1529 1530 1531 1532 1533 1533 1534 1534 1535 1536 1536 1537 1538 1538 1539 1540 1541 1541 1542 1543 1544 1544 1545 1546 1547 1548 1549 1550 1550 1551 1552 1552 1553 1553 1554 1555 1556 1556 1556 1557 1557 1558 1558 1558 1559 1559 1559 1558 1558 1557 1556 1554 1552 1551 1550 1548 1547 1545 1544 1542 1541
1470 1474 1476 1479 1483 1487 1491 1495 1498 1500 1502 1504 1505 1507 1509 1510 1513 1515 1517 1519 1520 1522 1524 1526 1528 1529 1530 1531 1532 1532 1533 1533 1534 1535 1535 1536 1537 1538 1538 1539 1540 1541 1542 1543 1543 1544 1544 1545 1547 1548 1549 1549 1550 1551 1551 1552 1552 1553 1554 1554 1555 1555 1556 1556 1557 1557 1558 1558 1558 1558 1558 1558 1557 1556 1555 1553 1552 1550 1549 1548 1546 1544 1543 1542 1541
1469 1472 1474 1477 1481 1485 1489 1493 1496 1498 1501 1502 1503 1505 1507 1509 1511 1513 1515 1517 1519 1521 1523 1525 1526 1527 1528 1529 1530 1531 1532 1532 1533 1534 1535 1535 1536 1537 1538 1539 1540 1541 1541 1542 1543 1543 1544 1545 1546 1547 1549 1549 1550 1550 1551 1551 1552 1553 1553 1554 1554 1555 1555 1555 1556 1557 1557 1558 1558 1558 1558 1557 1557 1556 1554 1553 1551 1550 1549 1547 1546 1544 1543 1542 1540
1467 1470 1472 1475 1479 1484 1488 1491 1494 1496 1498 1500 1501 1504 1506 1507 1510 1512 1514 1515 1517 1520 1522 1524 1525 1526 1527 1528 1529 1530 1530 1531 1532 1533 1534 1534 1535 1536 1537 1538 1539 1540 1541 1542 1542 1543 1544 1545 1546 1547 1548 1549 1549 1550 1550 1551 1552 1553 1553 1553 1554 1554 1554 1555 1555 1556 1557 1557 1557 1557 1557 1557 1556 1555 1554 1553 1551 1550 1549 1547 1545 1544 1542 1541 1540
1465 1468 1471 1474 1478 1482 1486 1489 1491 1494 1496 1498 1500 1503 1505 1506 1508 1510 1512 1514 1516 1519 1521 1522 1524 1525 1526 1527 1528 1529 1529 1530 1531 1532 1533 1534 1535 1536 1537 1538 1539 1540 1541 1542 1542 1543 1544 1545 1546 1547 1548 1548 1549 1549 1550 1551 1552 1552 1553 1553 1553 1554 1554 1554 1555 1555 1556 1556 1557 1557 1556 1556 1555 1554 1553 1552 1551 1550 1549 1547 1545 1543 1542 1541 1540
1463 1466 1469 1472 1476 1480 1483 1486 1489 1492 1494 1497 1499 1501 1503 1505 1507 1508 1510 1512 1515 1517 1519 1521 1522 1524 1525 1526 1527 1528 1528 1529 1530 1531 1532 1533 1534 1535 1536 1537 1538 1539 1540 1541 1542 1543 1544 1545 1546 1546 1547 1548 1549 1549 1550 1550 1551 1552 1552 1552 1552 1553 1553 1553 1554 1554 1555 1556 1556 1556 1556 1555 1554 1553 1552 1551 1550 1549 1548 1547 1545 1543 1542 1540 1539
1460 1463 1467 1470 1474 1478 1481 1484 1487 1490 1493 1495 1498 1500 1502 1503 1505 1506 1508 1511 1513 1516 1518 1520 1521 1523 1524 1525 1526 1527 1527 1528 1530 1530 1531 1532 1533 1534 1535 1536 1538 1539 1540 1541 1542 1543 1544 1544 1545 1546 1547 1547 1548 1548 1549 1550 1550 1551 1551 1551 1552 1552 1552 1553 1553 1554 1554 1555 1555 1555 1555 1554 1554 1553 1552 1551 1549 1548 1546 1545 1544 1543 1541 1540 1538
1458 1461 1465 1468 1472 1475 1479 1483 1486 1489 1491 1493 1496 1498 1500 1502 1503 1505 1507 1509 1512 1515 1517 1519 1520 1521 1523 1524 1525 1525 1526 1527 1528 1529 1530 1531 1532 1533 1534 1535 1537 1538 1539 1540 1541 1542 1543 1544 1544 1545 1546 1547 1547 1548 1548 1549 1549 1550 1550 1550 1551 1551 1551 1552 1552 1553 1553 1554 1554 1554 1553 1553 1553 1552 1551 1550 1549 1547 1545 1544 1543 1542 1541 1539 1538
1456 1459 1462 1466 1470 1474 1478 1481 1484 1487 1490 1491 1494 1496 1499 1500 1502 1504 1506 1508 1511 1513 1516 1517 1519 1520 1521 1522 1523 1524 1525 1526 1527 1528 1529 1530 1531 1532 1533 1535 1536 1537 1538 1539 1540 1541 1542 1543 1544 1545 1546 1546 1547 1547 1548 1548 1549 1549 1549 1549 1550 1550 1550 1551 1551 1552 1552 1553 1553 1552 1552 1552 1552 1551 1551 1550 1549 1547 1545 1544 1543 1541 1540 1539 1538
1454 1457 1460 1464 1468 1472 1476 1479 1482 1485 1488 1490 1492 1495 1497 1499 1500 1502 1504 1507 1509 1512 1514 1516 1517 1518 1520 1521 1522 1522 1523 1524 1525 1527 1528 1529 1530 1532 1533 1534 1535 1536 1538 1538 1539 1540 1541 1542 1543 1544 1545 1545 1546 1547 1547 1548 1548 1549 1549 1549 1549 1549 1550 1550 1550 1551 1551 1551 1551 1551 1551 1551 1551 1551 1550 1550 1548 1547 1545 1544 1542 1541 1539 1538 1537
1452 1455 1459 1462 1466 1470 1474 1477 1479 1482 1485 1489 1491 1493 1495 1497 1499 1501 1503 1505 1508 1510 1512 1514 1515 1517 1518 1519 1520 1521 1522 1523 1524 1526 1527 1528 1530 1531 1532 1533 1534 1536 1537 1538 1539 1540 1541 1542 1543 1543 1544 1545 1545 1546 1546 1547 1548 1548 1548 1548 1548 1549 1549 1550 1550 1550 1551 1551 1550 1550 1550 1551 1550 1550 1549 1549 1548 1547 1545 1544 1542 1540 1539 1537 1535
1450 1454 1457 1461 1464 1468 1471 1475 1477 1480 1482 1486 1489 1491 1493 1495 1497 1499 1501 1503 1506 1508 1511 1512 1514 1515 1517 1518 1519 1519 1520 1522 1523 1525 1526 1528 1529 1530 1531 1532 1533 1535 1536 1537 1539 1539 1540 1541 1542 1543 1543 1544 1545 1545 1546 1547 1547 1547 1548 1548 1548 1548 1549 1549 1549 1549 1550 1549 1549 1549 1549 1550 1549 1549 1548 1548 1547 1546 1545 1544 1542 1541 1539 1537 1535
1449 1452 1455 1459 1462 1465 1469 1472 1476 1478 1481 1484 1487 1489 1491 1493 1495 1497 1499 1502 1504 1507 1509 1511 1512 1514 1515 1516 1517 1518 1519 1521 1522 1524 1525 1527 1528 1529 1530 1532 1533 1535 1536 1537 1538 1539 1540 1541 1542 1542 1543 1543 1544 1545 1545 1546 1546 1547 1547 1547 1547 1548 1548 1548 1548 1548 1549 1548 1548 1548 1548 1548 1548 1548 1547 1546 1546 1545 1544 1543 1542 1540 1539 1538 1536
1447 1450 1453 1456 1459 1463 1466 1470 1474 1476 1479 1482 1484 1486 1489 1491 1493 1495 1497 1500 1502 1505 1507 1509 1510 1512 1514 1515 1516 1517 1519 1520 1521 1523 1524 1526 1527 1528 1529 1531 1532 1534 1535 1536 1537 1538 1540 1541 1541 1541 1542 1543 1543 1544 1545 1545 1546 1546 1546 1547 1547 1547 1547 1547 1547 1547 1548 1548 1547 1547 1547 1547 1547 1546 1546 1545 1545 1544 1543 1542 1541 1540 1539 1538 1536
1445 1448 1450 1453 1457 1460 1464 1468 1471 1473 1476 1479 1482 1485 1487 1489 1491 1493 1495 1498 1501 1503 1505 1507 1509 1511 1513 1514 1515 1516 1518 1519 1521 1522 1524 1525 1526 1527 1528 1530 1531 1533 1534 1535 1537 1538 1539 1540 1540 1541 1542 1542 1543 1543 1544 1545 1545 1545 1546 1546 1546 1546 1546 1547 1546 1546 1547 1547 1546 1546 1546 1546 1545 1545 1545 1544 1544 1543 1542 1541 1540 1539 1538 1537 1536
1442 1445 1447 1450 1454 1457 1461 1465 1467 1469 1472 1476 1480 1482 1485 1486 1489 1491 1494 1497 1500 1502 1504 1506 1508 1510 1512 1513 1514 1516 1517 1519 1520 1521 1523 1524 1525 1526 1527 1529 1530 1531 1533 1534 1535 1536 1537 1538 1539 1540 1541 1541 1542 1542 1543 1544 1544 1545 1545 1545 1545 1545 1546 1546 1545 1545 1545 1545 1545 1545 1544 1544 1544 1544 1544 1543 1543 1542 1541 1540 1540 1539 1537 1536 1535
1438 1441 1444 1448 1452 1455 1458 1462 1464 1467 1470 1474 1477 1480 1483 1485 1487 1490 1492 1495 1498 1500 1503 1505 1507 1509 1511 1512 1513 1515 1516 1518 1519 1521 1522 1523 1524 1525 1526 1527 1529 1530 1531 1533 1533 1534 1534 1535 1537 1537 1538 1539 1540 1541 1542 1542 1543 1543 1544 1544 1544 1545 1544 1544 1544 1544 1544 1544 1543 1543 1543 1542 1542 1542 1542 1542 1542 1541 1540 1540 1539 1538 1537 1535 1534
1436 1439 1442 1446 1450 1453 1456 1459 1462 1465 1468 1471 1475 1478 1481 1483 1485 1488 1491 1494 1496 1499 1502 1504 1506 1508 1510 1511 1512 1514 1515 1517 1519 1520 1521 1522 1523 1524 1525 1526 1527 1529 1530 1531 1531 1531 1533 1534 1535 1536 1536 1537 1539 1539 1540 1541 1541 1542 1542 1543 1543 1543 1543 1543 1543 1543 1543 1542 1542 1542 1541 1541 1541 1541 1541 1541 1541 1540 1539 1539 1539 1538 1537 1535 1534
1433 1436 1440 1444 1448 1451 1455 1458 1460 1463 1465 1469 1474 1477 1479 1481 1484 1487 1490 1493 1496 1499 1501 1503 1505 1507 1508 1510 1511 1513 1514 1516 1517 1518 1519 1520 1521 1523 1524 1525 1526 1527 1528 1528 1529 1530 1531 1532 1533 1534 1535 1535 1537 1537 1538 1539 1539 1540 1541 1541 1542 1542 1542 1542 1541 1541 1541 1541 1541 1540 1540 1540 1540 1540 1540 1540 1539 1539 1538 1538 1538 1537 1536 1535 1533
1431 1435 1439 1443 1447 1451 1454 1456 1458 1460 1464 1469 1473 1476 1478 1480 1482 1486 1489 1492 1495 1498 1500 1502 1504 1505 1507 1508 1509 1511 1513 1514 1516 1517 1518 1519 1520 1521 1522 1523 1524 1525 1526 1526 1527 1528 1530 1531 1531 1532 1533 1534 1535 1536 1536 1537 1538 1538 1539 1540 1540 1541 1541 1540 1540 1540 1540 1539 1539 1539 1539 1539 1539 1539 1539 1539 1538 1538 1537 1537 1537 1537 1536 1535 1533
1430 1434 1438 1442 1447 1450 1453 1455 1458 1461 1466 1469 1473 1475 1477 1479 1481 1484 1488 1491 1494 1496 1498 1500 1502 1503 1505 1506 1507 1509 1511 1512 1514 1515 1516 1517 1518 1519 1521 1521 1522 1523 1524 1524 1525 1526 1528 1529 1530 1531 1532 1533 1533 1534 1535 1536 1536 1537 1538 1538 1539 1540 1539 1539 1539 1539 1538 1538 1538 1538 1538 1537 1538 1538 1538 1538 1537 1537 1537 1536 1536 1536 1535 1534 1532
1430 1434 1438 1442 1446 1450 1454 1457 1460 1463 1466 1469 1470 1472 1474 1477 1480 1483 1487 1489 1492 1494 1496 1498 1500 1501 1502 1504 1505 1507 1509 1510 1512 1513 1514 1515 1516 1518 1519 1520 1521 1522 1522 1523 1524 1525 1526 1527 1528 1530 1531 1532 1533 1534 1534 1535 1535 1536 1537 1537 1538 1538 1538 1538 1538 1537 1537 1537 1537 1537 1537 1537 1537 1537 1537 1537 1537 1536 1536 1536 1536 1535 1534 1533 1532
1429 1433 1437 1440 1444 1448 1453 1456 1459 1463 1465 1467 1469 1470 1472 1475 1478 1481 1484 1487 1490 1492 1494 1496 1498 1498 1500 1501 1503 1505 1507 1508 1509 1511 1512 1513 1514 1516 1517 1518 1519 1520 1520 1521 1522 1523 1525 1526 1527 1528 1530 1531 1531 1532 1533 1533 1533 1534 1535 1536 1536 1537 1537 1537 1536 1536 1536 1536 1536 1536 1536 1536 1536 1536 1536 1536 1536 1536 1535 1535 1535 1534 1533 1532 1531
1429 1432 1435 1438 1442 1446 1450 1453 1458 1461 1464 1465 1467 1468 1470 1473 1476 1479 1482 1485 1487 1489 1492 1494 1495 1496 1497 1499 1501 1503 1505 1506 1507 1508 1510 1511 1512 1513 1514 1515 1516 1517 1518 1519 1520 1521 1522 1523 1525 1527 1528 1528 1529 1530 1530 1531 1531 1532 1533 1534 1534 1535 1535 1535 1535 1535 1535 1535 1535 1535 1536 1536 1536 1536 1536 1535 1535 1535 1534 1534 1534 1533 1532 1531 1531
1428 1431 1434 1436 1440 1444 1448 1452 1456 1459 1461 1463 1464 1466 1468 1470 1473 1476 1479 1482 1485 1487 1490 1492 1493 1494 1495 1497 1498 1500 1502 1503 1505 1506 1507 1508 1509 1510 1511 1512 1513 1514 1516 1517 1518 1518 1520 1521 1523 1525 1526 1526 1527 1527 1528 1528 1529 1530 1531 1531 1532 1532 1533 1533 1534 1534 1534 1534 1534 1535 1535 1535 1535 1535 1534 1534 1534 1533 1533 1533 1532 1532 1531 1530 1529
1427 1430 1433 1436 1439 1443 1447 1450 1453 1456 1458 1461 1462 1464 1466 1468 1471 1474 1477 1480 1483 1485 1487 1489 1490 1492 1493 1494 1496 1498 1499 1501 1502 1503 1505 1506 1507 1508 1509 1510 1511 1512 1513 1514 1515 1516 1517 1519 1521 1522 1523 1524 1524 1525 1525 1526 1527 1528 1528 1529 1529 1530 1531 1532 1532 1532 1532 1533 1534 1534 1534 1534 1534 1534 1533 1533 1532 1532 1532 1531 1531 1530 1530 1529 1528
1426 1429 1431 1435 1438 1442 1445 1448 1451 1453 1456 1458 1461 1463 1465 1467 1469 1472 1475 1478 1480 1483 1485 1487 1488 1490 1491 1492 1494 1496 1497 1498 1500 1501 1502 1503 1504 1505 1506 1507 1508 1509 1510 1511 1512 1513 1514 1516 1518 1520 1521 1522 1522 1523 1523 1524 1525 1525 1526 1526 1527 1528 1529 1529 1530 1530 1530 1531 1532 1532 1533 1533 1532 1532 1532 1531 1531 1531 1530 1530 1529 1529 1528 1527 1527
1423 1426 1430 1433 1436 1440 1443 1446 1448 1451 1454 1456 1459 1461 1463 1465 1467 1469 1472 1475 1477 1480 1482 1484 1486 1488 1489 1491 1492 1494 1495 1496 1497 1498 1499 1500 1502 1503 1504 1505 1505 1506 1507 1508 1510 1511 1512 1513 1515 1517 1519 1519 1520 1520 1521 1522 1522 1523 1524 1525 1525 1526 1527 1527 1527 1527 1528 1529 1530 1530 1531 1531 1531 1530 1530 1530 1529 1529 1529 1528 1528 1527 1527 1526 1525
1422 1425 1428 1431 1435 1438 1441 1443 1446 1449 1452 1454 1457 1459 1461 1463 1465 1467 1470 1473 1476 1478 1480 1482 1484 1486 1487 1489 1490 1492 1493 1494 1496 1497 1498 1499 1500 1501 1502 1502 1503 1504 1505 1506 1506 1508 1509 1511 1512 1514 1515 1517 1517 1518 1519 1520 1520 1521 1522 1523 1523 1524 1524 1525 1525 1525 1526 1527 1528 1528 1529 1529 1529 1529 1528 1528 1528 1527 1527 1527 1526 1526 1525 1525 1524
1420 1423 1426 1429 1433 1436 1439 1441 1444 1447 1450 1452 1454 1457 1459 1461 1464 1467 1469 1472 1474 1477 1479 1481 1483 1485 1486 1487 1489 1490 1491 1493 1494 1495 1496 1497 1498 1499 1499 1500 1501 1501 1502 1503 1503 1504 1506 1508 1509 1511 1512 1514 1515 1516 1517 1517 1518 1519 1520 1521 1522 1522 1522 1523 1523 1524 1525 1525 1526 1526 1526 1526 1527 1527 1526 1526 1526 1526 1526 1525 1525 1524 1523 1523 1522
1418 1421 1424 1428 1431 1434 1437 1440 1442 1445 1448 1450 1452 1455 1457 1460 1462 1465 1468 1470 1473 1475 1477 1479 1481 1483 1484 1485 1487 1488 1489 1491 1492 1493 1494 1495 1496 1497 1497 1498 1499 1500 1500 1501 1501 1501 1503 1504 1506 1508 1509 1510 1511 1513 1514 1515 1516 1517 1518 1519 1520 1520 1520 1521 1522 1522 1523 1523 1523 1524 1524 1524 1524 1524 1524 1524 1524 1524 1524 1523 1523 1522 1522 1521 1520
1417 1420 1423 1427 1430 1433 1436 1438 1441 1444 1446 1448 1450 1453 1455 1457 1460 1462 1465 1468 1471 1473 1475 1477 1479 1480 1482 1483 1485 1486 1487 1489 1490 1491 1492 1493 1494 1494 1495 1496 1497 1498 1498 1498 1498 1499 1500 1501 1503 1505 1506 1507 1508 1510 1511 1512 1514 1515 1516 1517 1517 1518 1519 1519 1520 1520 1520 1520 1521 1521 1521 1522 1522 1522 1522 1522 1522 1522 1522 1521 1521 1521 1520 1519 1519
1417 1419 1422 1425 1428 1431 1434 1437 1439 1442 1444 1446 1449 1451 1453 1456 1458 1460 1463 1465 1468 1471 1473 1474 1476 1477 1479 1481 1482 1484 1485 1487 1488 1489 1490 1491 1492 1493 1493 1494 1495 1495 1495 1495 1495 1496 1497 1499 1500 1502 1503 1504 1505 1506 1508 1509 1511 1512 1513 1514 1515 1516 1517 1517 1517 1517 1517 1517 1518 1518 1519 1519 1519 1520 1520 1520 1519 1519 1519 1519 1519 1518 1518 1517 1517
1417 1419 1422 1425 1428 1431 1433 1436 1438 1440 1443 1445 1448 1450 1453 1455 1457 1459 1461 1463 1466 1468 1470 1471 1473 1474 1476 1478 1480 1482 1483 1484 1486 1487 1488 1489 1490 1491 1491 1492 1492 1492 1492 1492 1493 1494 1495 1496 1497 1499 1500 1501 1501 1503 1504 1505 1507 1509 1510 1511 1512 1513 1514 1514 1514 1514 1514 1514 1515 1515 1516 1516 1517 1517 1517 1517 1517 1517 1516 1516 1516 1516 1516 1515 1515
1417 1420 1423 1425 1428 1430 1432 1435 1437 1439 1442 1444 1447 1449 1452 1454 1455 1457 1460 1462 1464 1466 1468 1469 1470 1472 1473 1476 1478 1479 1481 1482 1484 1485 1486 1487 1488 1488 1488 1488 1489 1489 1490 1490 1491 1492 1493 1494 1494 1495 1496 1497 1498 1499 1500 1501 1503 1505 1506 1507 1509 1510 1511 1511 1511 1511 1511 1512 1512 1513 1513 1514 1514 1514 1514 1514 1514 1514 1513 1513 1513 1513 1513 1513 1512
1417 1420 1423 1425 1428 1430 1432 1434 1436 1439 1441 1444 1446 1448 1450 1452 1454 1456 1458 1461 1463 1464 1466 1467 1469 1470 1472 1474 1476 1477 1479 1480 1481 1483 1484 1485 1485 1485 1485 1485 1486 1487 1487 1488 1489 1489 1490 1491 1492 1492 1493 1494 1494 1495 1496 1497 1499 1501 1502 1504 1505 1506 1507 1508 1508 1508 1509 1509 1509 1510 1510 1511 1511 1511 1512 1512 1511 1511 1511 1511 1511 1511 1511 1510 1510
1417 1420 1423 1425 1428 1430 1432 1434 1436 1438 1440 1442 1444 1446 1448 1450 1452 1454 1456 1459 1460 1462 1463 1465 1467 1469 1471 1472 1473 1475 1476 1478 1479 1480 1481 1482 1482 1482 1482 1483 1483 1484 1485 1486 1487 1487 1488 1489 1489 1490 1491 1491 1492 1492 1493 1494 1495 1496 1498 1500 1501 1503 1504 1505 1505 1505 1506 1506 1507 1507 1508 1508 1508 1509 1509 1509 1509 1509 1508 1508 1508 1508 1508 1508 1508
1416 1419 1422 1425 1427 1429 1431 1433 1436 1438 1440 1441 1443 1445 1446 1448 1451 1452 1454 1456 1458 1460 1462 1464 1466 1467 1469 1470 1471 1472 1474 1475 1476 1477 1478 1479 1479 1479 1480 1480 1481 1481 1482 1483 1484 1485 1485 1486 1487 1488 1489 1489 1489 1490 1491 1491 1491 1492 1494 1495 1497 1498 1500 1501 1501 1502 1503 1504 1504 1504 1505 1505 1506 1506 1506 1507 1506 1506 1506 1506 1506 1506 1506 1506 1505
1414 1418 1421 1424 1426 1428 1431 1433 1435 1437 1439 1440 1442 1443 1445 1446 1448 1450 1452 1455 1456 1458 1460 1462 1463 1465 1466 1467 1468 1470 1471 1473 1474 1474 1475 1476 1477 1477 1478 1478 1478 1478 1479 1480 1481 1482 1483 1484 1485 1486 1486 1487 1487 1488 1488 1488 1488 1489 1490 1491 1493 1494 1495 1497 1498 1499 1500 1501 1502 1502 1502 1503 1503 1504 1504 1504 1504 1504 1504 1504 1504 1504 1503 1503 1503
1413 1417 1420 1422 1425 1427 1430 1432 1434 1436 1437 1439 1440 1441 1443 1444 1446 1448 1450 1453 1454 1456 1458 1459 1460 1462 1463 1465 1466 1467 1469 1470 1471 1473 1474 1474 1475 1475 1475 1475 1475 1476 1476 1477 1478 1479 1480 1481 1482 1483 1484 1485 1485 1485 1485 1485 1485 1486 1487 1488 1489 1490 1491 1492 1493 1495 1496 1498 1499 1499 1500 1500 1501 1501 1502 1502 1502 1502 1502 1502 1501 1501 1501 1500 1500
1413 1416 1419 1421 1424 1426 1428 1430 1432 1434 1436 1437 1439 1440 1441 1443 1444 1446 1448 1450 1452 1454 1455 1456 1458 1460 1461 1463 1464 1466 1467 1468 1469 1471 1471 1472 1473 1473 1473 1473 1473 1473 1473 1474 1475 1476 1477 1478 1479 1480 1481 1482 1483 1483 1483 1483 1483 1483 1484 1485 1485 1486 1488 1489 1490 1491 1492 1494 1495 1496 1497 1498 1498 1499 1499 1500 1500 1499 1499 1499 1499 1498 1498 1497 1497
1414 1416 1418 1420 1422 1424 1426 1428 1430 1432 1434 1435 1436 1438 1439 1441 1443 1445 1446 1448 1450 1451 1453 1455 1456 1458 1459 1461 1462 1464 1465 1466 1467 1468 1469 1470 1470 1470 1470 1470 1470 1470 1470 1471 1472 1473 1474 1475 1476 1478 1478 1479 1480 1480 1480 1480 1481 1481 1482 1482 1483 1483 1484 1485 1486 1487 1489 1490 1492 1494 1495 1495 1496 1496 1496 1497 1497 1497 1497 1496 1496 1496 1495 1495 1494
1414 1416 1417 1419 1421 1423 1425 1427 1428 1430 1431 1433 1434 1436 1438 1439 1441 1443 1445 1446 1448 1449 1451 1453 1455 1455 1457 1458 1460 1461 1462 1463 1464 1466 1467 1468 1468 1468 1468 1468 1468 1468 1468 1468 1469 1470 1471 1472 1473 1474 1475 1476 1476 1477 1477 1478 1478 1478 1479 1479 1480 1480 1481 1482 1483 1484 1485 1487 1489 1490 1491 1492 1493 1493 1494 1494 1494 1494 1494 1494 1494 1493 1492 1492 1491
1414 1416 1417 1419 1421 1422 1424 1425 1427 1428 1430 1431 1433 1435 1436 1438 1440 1441 1443 1444 1446 1448 1449 1451 1452 1453 1454 1455 1456 1458 1459 1460 1462 1463 1464 1465 1466 1466 1466 1466 1466 1466 1466 1467 1467 1467 1468 1469 1470 1471 1471 1472 1473 1473 1474 1475 1475 1475 1476 1476 1477 1478 1479 1480 1481 1481 1482 1483 1485 1487 1488 1489 1490 1490 1491 1491 1491 1491 1491 1491 1491 1490 1490 1489 1488
1414 1415 1417 1418 1420 1422 1423 1424 1426 1427 1428 1430 1432 1433 1435 1437 1438 1440 1441 1443 1444 1445 1447 1448 1449 1450 1451 1452 1453 1455 1456 1458 1459 1461 1462 1463 1464 1464 1464 1464 1464 1465 1465 1465 1465 1465 1465 1466 1466 1467 1467 1468 1469 1470 1471 1472 1472 1472 1473 1473 1474 1475 1476 1478 1478 1479 1480 1481 1482 1484 1485 1486 1487 1487 1488 1488 1488 1488 1488 1488 1488 1487 1487 1486 1486
1414 1416 1417 1418 1420 1421 1423 1424 1425 1427 1428 1430 1431 1433 1434 1436 1437 1439 1440 1441 1442 1443 1444 1445 1446 1447 1448 1449 1451 1452 1454 1455 1457 1458 1459 1460 1461 1462 1462 1462 1462 1462 1463 1463 1463 1463 1463 1463 1463 1463 1464 1465 1466 1467 1468 1469 1469 1470 1470 1471 1472 1473 1474 1475 1476 1477 1478 1479 1480 1481 1482 1483 1484 1485 1485 1485 1485 1485 1485 1485 1485 1484 1484 1483 1483
1415 1416 1418 1419 1420 1422 1423 1424 1426 1427 1428 1429 1431 1432 1433 1435 1436 1437 1438 1439 1440 1441 1442 1443 1444 1445 1446 1447 1448 1450 1452 1453 1454 1455 1457 1458 1459 1460 1460 1460 1460 1460 1461 1461 1461 1460 1460 1461 1461 1461 1461 1462 1463 1464 1465 1466 1467 1468 1469 1470 1471 1472 1473 1473 1474 1475 1476 1477 1478 1479 1479 1480 1481 1482 1482 1482 1482 1482 1482 1482 1482 1481 1481 1480 1480
1415 1417 1418 1420 1421 1422 1423 1425 1426 1427 1428 1429 1430 1431 1432 1433 1434 1435 1436 1437 1438 1439 1440 1441 1442 1443 1444 1445 1446 1447 1449 1450 1451 1453 1454 1455 1456 1457 1458 1458 1458 1458 1459 1459 1459 1459 1459 1459 1459 1459 1460 1460 1461 1463 1464 1464 1465 1466 1467 1468 1469 1469 1470 1471 1471 1472 1473 1474 1475 1476 1477 1478 1478 1479 1479 1479 1479 1479 1479 1479 1478 1478 1478 1477 1476
1416 1417 1419 1420 1421 1422 1423 1424 1425 1426 1427 1427 1428 1429 1430 1431 1432 1433 1434 1435 1436 1437 1439 1440 1441 1442 1443 1444 1445 1446 1447 1448 1449 1450 1451 1452 1453 1455 1455 1456 1456 1456 1456 1457 1457 1457 1457 1458 1458 1458 1459 1459 1460 1461 1462 1463 1464 1464 1465 1466 1466 1467 1468 1468 1469 1470 1471 1472 1473 1474 1474 1475 1476 1476 1476 1476 1476 1476 1476 1476 1475 1475 1474 1474 1473
1416 1418 1419 1420 1421 1422 1423 1423 1424 1424 1425 1425 1426 1427 1428 1429 1429 1431 1432 1433 1434 1435 1437 1438 1439 1440 1441 1442 1443 1444 1445 1445 1447 1448 1449 1450 1451 1452 1453 1453 1453 1454 1454 1455 1455 1455 1456 1456 1457 1457 1458 1458 1459 1460 1460 1461 1462 1463 1463 1464 1464 1465 1466 1466 1467 1468 1469 1469 1470 1471 1472 1472 1473 1473 1473 1473 1473 1473 1473 1473 1472 1472 1471 1470 1470
1416 1417 1419 1419 1420 1421 1422 1422 1423 1423 1424 1424 1425 1425 1426 1427 1428 1429 1430 1431 1432 1434 1435 1436 1437 1438 1439 1440 1441 1442 1443 1443 1445 1446 1446 1447 1448 1449 1450 1450 1451 1451 1452 1453 1453 1454 1454 1455 1455 1456 1457 1457 1458 1458 1459 1460 1460 1461 1461 1462 1463 1463 1464 1465 1465 1466 1467 1467 1468 1469 1469 1469 1470 1470 1470 1471 1471 1470 1470 1470 1469 1468 1468 1467 1467